Showing default

YAOGAN 20C, 40111

Orbit data source: Space-Track

YAOGAN 20C, 40111 is a payload satellite owned by PLA GAD (CN) in LEO that was launched on Sat, 09 Aug 2014 UTC via a CHANG ZHENG 4C launch vehicle from the Jiuquan Satellite Launch Center, China (JSC). Payloads include a variety of satellites, spacecraft, and rockets equipped with specific instruments for various scientific and technological missions. These include communications satellites like Starlink; space stations such as the ISS; scientific satellites like the Hubble; Earth observation satellites from companies like Planet Labs, Umbra, and HawkEye 360; GPS; miniature CubeSats for education and research; and military/defense satellites.

Loading next visibility...
YAOGAN 20C details
Identifier
40111, 2014-047C
Orbit
LEO
Last TLE update15 hours ago
Origin
Flag of CNPLA GAD (CN / PRC)
ManufacturerCAST
MissionOperational Defense Sigint
Bus & MotorUnknown
Mass~500 kg wet, ~500 kg dry
Launch date (UTC)
2014-08-09 (10 years ago)
Launch vehicle
CHANG ZHENG 4C
Launch site
Jiuquan Satellite Launch Center, China (JSC)
Object type
Payload
Rocket body
Debris
Shape & HBRBox + 2 Pan, 1 m
Radar Cross Section0.446 m², Large (>1 m²)

Expand to show TLE details & history

TLE from 15 hours ago
0 YAOGAN 20C
1 40111U 14047C   24348.59304553  .00000045  00000-0  16106-3 0  9994
2 40111  63.3841 358.6495 0341690  12.2625 348.6458 13.45360005508216
Epoch: 2024-12-13T14:13Z
Definitive object data (Epoch: 2024-12-13T14:13:59.133Z)
Latitude-0.00008°
Longitude62.39627°
Altitude841.313 km
Speed7.556 km/s
True Right ascension23h 54m 35s
True Declination0° 00' 00"
Sunlit
Object was in daylight at TLE epoch
Visualization TLE readout
Latitude-1.70046°
Longitude-118.38248°
Altitude1,342.008 km
Speed7.066 km/s
Apparent Right ascension13h 23m 59s
Apparent Declination-21° 26' 31"
Sunlit
Object is in daylight
Visualization observer readout
Local Sidereal Time03:56:52
Azimuth71.844° E
Elevation-52.696°
Doppler factor1
Orbital elements
Apogee altitude1,343.326 km
Perigee altitude833.091 km
Semi-major axis7,466.345 km
Eccentricity0.034169
Inclination63.3841°
RAAN358.6495°
Arg. of periapsis12.2625°
True anomaly347.84134°
Mean anomaly348.6458°
Eccentric anomaly348.24702°
Mean motion3.36419 °/min
BSTAR0.00016106
Orbital period107.01 mins
Loading maneuver chart data...
Loading historical data...
Loading historical data...
Loading historical data...
Loading historical data...
Loading historical data...
Loading historical data...
Loading historical data...

YAOGAN 20C Visibility forecast

Observer location: undefined°, undefined

Span
Click to sort rows by Start time (UTC) header in descending order
Start Az.
Max El. time (UTC)
Max El. Az.
Max El.
End time (UTC)
End Az.
5 mins2024-12-14 08:32:49.389Z3.736° NNE2024-12-14 08:34:49.389Z21.588° NNE12.65°2024-12-14 08:37:49.389Z47.106° ENE
12 mins2024-12-14 10:22:49.389Z346.107° N2024-12-14 10:27:49.389Z50.637° ENE33.278°2024-12-14 10:34:49.389Z115.147° SE
13 mins2024-12-14 12:12:49.389Z311.08° NW2024-12-14 12:18:49.389Z233.317° WSW37.047°2024-12-14 12:25:49.389Z172.475° S
9 mins2024-12-15 02:02:49.389Z183.216° SSW2024-12-15 02:06:49.389Z104.576° ESE36.857°2024-12-15 02:11:49.389Z44.767° NE
8 mins2024-12-15 03:53:49.389Z269.794° W2024-12-15 03:56:49.389Z311.649° NW25.904°2024-12-15 04:01:49.389Z14.213° NNE
|